M I D A S
Marine Information and Data Acquisition System
Tripno 185 of the Zeeleeuw from 2001-12-14 07:15:00 to 2001-12-14 18:30:00
Back to CruiseResearch ActivitiesStationsMapUnderway DataData graphs

EquipmentUnitsComments
TimeDGPSUTC
LatitudeDGPSDM.mWGS84
LongitudeDGPSDM.mWGS84
SpeedMeteo Stationm/sRelative wind speed
DirectionMeteo StationdegRelative wind direction
TemperatureMeteo Stationdeg CelciusAir temperature
PressureMeteo StationPaAtmospheric pressure
HumidityMeteo Station%Relative humidity
Missing or incorrect values are displayed as -999
Metereological data collected by the RV Zeeleeuw from 2001-12-14 07:15:00 to 2001-12-14 18:30:00
                                                                                    Next 1000 lines
Time Latitude Longitude Speed Direction Temperature Pressure Humidity
2001-12-14 07:20:31 51°13.687 2°55.905 2 199 -3.3 103960 69
2001-12-14 07:20:36 51°13.687 2°55.905 1.7 182 -3.3 103960 69
2001-12-14 07:20:41 51°13.687 2°55.905 4.3 159 -3.3 103960 69
2001-12-14 07:20:46 51°13.687 2°55.905 2.2 211 -3.3 103960 69
2001-12-14 07:20:51 51°13.687 2°55.905 1.7 200 -3.3 103960 69
2001-12-14 07:20:56 51°13.687 2°55.905 3 162 -3.3 103960 69
2001-12-14 07:21:01 51°13.687 2°55.905 2.6 163 -3.3 103960 69
2001-12-14 07:21:06 51°13.687 2°55.905 2.2 154 -3.3 103960 69
2001-12-14 07:21:11 51°13.687 2°55.905 2.3 159 -3.3 103960 69
2001-12-14 07:21:16 51°13.687 2°55.905 2.7 162 -3.3 103960 69
2001-12-14 07:21:21 51°13.687 2°55.905 2.7 182 -3.3 103960 69
2001-12-14 07:21:26 51°13.687 2°55.905 2.2 198 -3.3 103960 69
2001-12-14 07:21:31 51°13.688 2°55.905 6.5 211 -3.3 103960 69
2001-12-14 07:21:36 51°13.688 2°55.905 4.1 213 -3.3 103960 69
2001-12-14 07:21:41 51°13.688 2°55.905 3.7 166 -3.3 103960 70
2001-12-14 07:21:46 51°13.688 2°55.905 3.4 195 -3.3 103960 70
2001-12-14 07:21:51 51°13.688 2°55.905 4 183 -3.3 103960 70
2001-12-14 07:21:57 51°13.688 2°55.905 2.1 219 -3.3 103960 70
2001-12-14 07:22:01 51°13.688 2°55.905 3 181 -3.3 103960 70
2001-12-14 07:22:06 51°13.688 2°55.905 4.9 174 -3.3 103960 70
2001-12-14 07:22:11 51°13.688 2°55.905 4.8 200 -3.3 103960 70
2001-12-14 07:22:16 51°13.688 2°55.906 3.5 192 -3.3 103960 70
2001-12-14 07:22:21 51°13.688 2°55.906 3.2 153 -3.3 103960 69
2001-12-14 07:22:26 51°13.688 2°55.906 3.2 165 -3.3 103960 69
2001-12-14 07:22:31 51°13.688 2°55.906 4.5 176 -3.3 103960 69
2001-12-14 07:22:36 51°13.688 2°55.906 1.9 203 -3.3 103960 69
2001-12-14 07:22:41 51°13.688 2°55.905 1.6 190 -3.3 103950 69
2001-12-14 07:22:46 51°13.688 2°55.905 2.7 192 -3.3 103950 69
2001-12-14 07:22:50 51°13.688 2°55.905 3.6 176 -3.3 103960 70
2001-12-14 07:22:56 51°13.688 2°55.905 3.4 150 -3.3 103960 70
2001-12-14 07:23:00 51°13.688 2°55.905 2 212 -3.3 103960 69
2001-12-14 07:23:06 51°13.689 2°55.905 1.8 161 -3.3 103960 69
2001-12-14 07:23:11 51°13.688 2°55.905 2.8 187 -3.3 103960 70
2001-12-14 07:23:17 51°13.688 2°55.905 2 175 -3.3 103960 70
2001-12-14 07:23:21 51°13.688 2°55.905 2.1 160 -3.3 103960 70
2001-12-14 07:23:26 51°13.688 2°55.905 2.4 166 -3.3 103960 70
2001-12-14 07:23:31 51°13.688 2°55.905 3.3 185 -3.3 103960 70
2001-12-14 07:23:36 51°13.688 2°55.905 3.4 166 -3.3 103960 70
2001-12-14 07:23:41 51°13.688 2°55.905 2.6 175 -3.3 103960 70
2001-12-14 07:23:46 51°13.688 2°55.905 1.9 175 -3.3 103960 70
2001-12-14 07:23:51 51°13.688 2°55.905 2.1 184 -3.3 103960 70
2001-12-14 07:23:56 51°13.688 2°55.905 2.3 168 -3.3 103960 70
2001-12-14 07:24:01 51°13.688 2°55.905 2.1 176 -3.3 103960 70
2001-12-14 07:24:06 51°13.688 2°55.905 3.4 191 -3.3 103960 70
2001-12-14 07:24:11 51°13.688 2°55.905 2.7 177 -3.3 103960 70
2001-12-14 07:24:16 51°13.688 2°55.905 2.5 157 -3.3 103960 70
2001-12-14 07:24:21 51°13.688 2°55.905 3 150 -3.3 103960 70
2001-12-14 07:24:26 51°13.688 2°55.905 2 169 -3.3 103960 70
2001-12-14 07:24:31 51°13.688 2°55.905 2.2 172 -3.3 103950 70
2001-12-14 07:24:36 51°13.688 2°55.904 2.8 193 -3.3 103950 70
2001-12-14 07:24:41 51°13.688 2°55.904 3.7 174 -3.3 103950 70
2001-12-14 07:24:46 51°13.688 2°55.904 5.2 175 -3.3 103950 70
2001-12-14 07:24:51 51°13.688 2°55.904 4.7 176 -3.3 103960 70
2001-12-14 07:24:56 51°13.688 2°55.904 3.2 193 -3.3 103960 70
2001-12-14 07:25:01 51°13.688 2°55.905 2.5 199 -3.3 103960 70
2001-12-14 07:25:06 51°13.688 2°55.905 1.5 173 -3.3 103960 70
2001-12-14 07:25:11 51°13.688 2°55.905 2.6 161 -3.3 103950 70
2001-12-14 07:25:16 51°13.688 2°55.905 3.9 186 -3.3 103950 70
2001-12-14 07:25:21 51°13.688 2°55.905 3.8 194 -3.3 103960 70
2001-12-14 07:25:26 51°13.688 2°55.905 3.1 165 -3.3 103960 70
2001-12-14 07:25:31 51°13.688 2°55.905 3.8 178 -3.3 103950 70
2001-12-14 07:25:36 51°13.688 2°55.905 3.4 155 -3.3 103950 70
2001-12-14 07:25:41 51°13.688 2°55.905 4.2 158 -3.3 103950 70
2001-12-14 07:25:46 51°13.688 2°55.905 3.8 153 -3.3 103950 70
2001-12-14 07:25:51 51°13.688 2°55.905 2.2 175 -3.3 103960 70
2001-12-14 07:25:56 51°13.688 2°55.905 3.6 158 -3.3 103960 70
2001-12-14 07:26:01 51°13.689 2°55.905 3.6 162 -3.3 103960 70
2001-12-14 07:26:06 51°13.689 2°55.905 2.6 172 -3.3 103960 70
2001-12-14 07:26:11 51°13.689 2°55.905 1.9 198 -3.3 103960 70
2001-12-14 07:26:16 51°13.689 2°55.905 2.9 183 -3.3 103960 70
2001-12-14 07:26:38 51°13.689 2°55.905 2.8 170 -3.3 103960 70
2001-12-14 07:26:43 51°13.689 2°55.905 2.8 170 -3.3 103960 70
2001-12-14 07:26:48 51°13.689 2°55.905 2.8 170 -3.3 103960 70
2001-12-14 07:26:52 51°13.689 2°55.905 2.8 170 -3.3 103960 70
2001-12-14 07:26:56 51°13.689 2°55.905 2.8 170 -3.3 103960 70
2001-12-14 07:26:59 51°13.689 2°55.905 2.8 170 -3.3 103960 70
2001-12-14 07:27:03 51°13.689 2°55.905 2.8 170 -3.3 103960 70
2001-12-14 07:27:08 51°13.688 2°55.905     -3.3 103960 70
2001-12-14 07:27:33 51°13.688 2°55.905 1.1 174 -3.3 -999 70
2001-12-14 07:27:38 51°13.688 2°55.905 2.4 167 -3.3 -999 70
2001-12-14 07:27:43 51°13.688 2°55.905 2 172 -3.3 -999 71
2001-12-14 07:27:48 51°13.688 2°55.905 3.4 157 -3.3 -999 71
2001-12-14 07:27:53 51°13.688 2°55.905 3.3 162 -3.3 103950 71
2001-12-14 07:27:58 51°13.689 2°55.905 3.5 209 -3.3 103950 71
2001-12-14 07:28:03 51°13.689 2°55.905 4 180 -3.3 103950 71
2001-12-14 07:28:08 51°13.689 2°55.905 3.2 185 -3.3 103950 71
2001-12-14 07:28:13 51°13.689 2°55.905 3.3 161 -3.3 103950 71
2001-12-14 07:28:18 51°13.689 2°55.904 3.9 159 -3.3 103950 71
2001-12-14 07:28:23 51°13.689 2°55.904 3.6 172 -3.3 103950 71
2001-12-14 07:28:28 51°13.689 2°55.904 5.6 156 -3.3 103950 71
2001-12-14 07:28:34 51°13.689 2°55.905 4.3 164 -3.3 103960 71
2001-12-14 07:28:38 51°13.689 2°55.905 4.1 164 -3.3 103960 71
2001-12-14 07:28:43 51°13.689 2°55.905 3.4 172 -3.3 103960 71
2001-12-14 07:28:49 51°13.689 2°55.905 4 173 -3.3 103960 71
2001-12-14 07:28:53 51°13.689 2°55.905 4.8 181 -3.3 103960 71
2001-12-14 07:28:58 51°13.689 2°55.905 5 173 -3.3 103960 71
2001-12-14 07:29:03 51°13.689 2°55.905 4.3 172 -3.3 103960 72
2001-12-14 07:29:08 51°13.689 2°55.905 4.5 184 -3.3 103960 72
2001-12-14 07:29:13 51°13.689 2°55.905 4.7 193 -3.3 103960 72
2001-12-14 07:29:18 51°13.689 2°55.905 3.2 157 -3.3 103960 72
2001-12-14 07:29:23 51°13.689 2°55.905 5.8 186 -3.3 103960 72
2001-12-14 07:29:28 51°13.689 2°55.905 6.2 175 -3.3 103960 72
2001-12-14 07:29:33 51°13.689 2°55.905 4.9 175 -3.3 103960 71
2001-12-14 07:29:38 51°13.689 2°55.905 3.9 179 -3.3 103960 71
2001-12-14 07:29:43 51°13.689 2°55.905 3.4 187 -3.3 103960 71
2001-12-14 07:29:48 51°13.689 2°55.905 4.9 172 -3.3 103960 71
2001-12-14 07:29:53 51°13.689 2°55.905 4.7 162 -3.3 103960 71
2001-12-14 07:29:58 51°13.689 2°55.905 3.7 205 -3.3 103960 71
2001-12-14 07:30:03 51°13.689 2°55.905 3.3 163 -3.3 103960 71
2001-12-14 07:30:08 51°13.689 2°55.905 3.7 170 -3.3 103960 71
2001-12-14 07:30:13 51°13.689 2°55.905 4.1 170 -3.3 103960 71
2001-12-14 07:30:18 51°13.689 2°55.905 4.7 174 -3.3 103960 71
2001-12-14 07:30:23 51°13.689 2°55.905 4.3 164 -3.4 103960 71
2001-12-14 07:30:28 51°13.689 2°55.905 4 178 -3.4 103960 71
2001-12-14 07:30:33 51°13.689 2°55.905 3.4 170 -3.3 103960 72
2001-12-14 07:30:38 51°13.689 2°55.905 3.4 140 -3.3 103960 72
2001-12-14 07:30:42 51°13.689 2°55.905 4.2 167 -3.3 103960 72
2001-12-14 07:30:48 51°13.689 2°55.905 5.3 153 -3.3 103960 72
2001-12-14 07:30:54 51°13.689 2°55.905 4.8 170 -3.3 103960 72
2001-12-14 07:30:58 51°13.689 2°55.905 5.1 170 -3.3 103960 72
2001-12-14 07:31:03 51°13.689 2°55.904 5.2 167 -3.3 103960 72
2001-12-14 07:31:08 51°13.689 2°55.904 5 170 -3.3 103960 72
2001-12-14 07:31:13 51°13.689 2°55.904 4.2 177 -3.3 103960 72
2001-12-14 07:31:18 51°13.689 2°55.904 3.1 190 -3.3 103960 72
2001-12-14 07:31:23 51°13.689 2°55.904 3.2 176 -3.3 103960 72
2001-12-14 07:31:28 51°13.689 2°55.904 2.6 151 -3.3 103960 72
2001-12-14 07:31:33 51°13.689 2°55.904 2.1 187 -3.3 103960 72
2001-12-14 07:31:38 51°13.689 2°55.904 2.2 177 -3.3 103960 72
2001-12-14 07:31:43 51°13.689 2°55.904 2.4 198 -3.3 103960 72
2001-12-14 07:31:48 51°13.689 2°55.904 1.8 182 -3.3 103960 72
2001-12-14 07:31:53 51°13.689 2°55.904 2.4 151 -3.3 103960 72
2001-12-14 07:31:58 51°13.689 2°55.904 2.6 210 -3.3 103960 72
2001-12-14 07:32:03 51°13.689 2°55.904 1.8 209 -3.3 103960 72
2001-12-14 07:32:08 51°13.689 2°55.904 1.7 188 -3.3 103960 72
2001-12-14 07:32:13 51°13.689 2°55.904 1.5 201 -3.3 103960 72
2001-12-14 07:32:18 51°13.689 2°55.904 2.9 193 -3.3 103960 72
2001-12-14 07:32:23 51°13.689 2°55.904 4.3 196 -3.4 103960 72
2001-12-14 07:32:27 51°13.689 2°55.904 2.1 210 -3.4 103960 72
2001-12-14 07:32:33 51°13.689 2°55.904 1.3 194 -3.3 103960 72
2001-12-14 07:32:38 51°13.689 2°55.904 1.3 173 -3.3 103960 72
2001-12-14 07:32:43 51°13.689 2°55.904 1.3 166 -3.3 103960 72
2001-12-14 07:32:48 51°13.689 2°55.904 1.3 169 -3.3 103960 72
2001-12-14 07:32:53 51°13.689 2°55.904 1.3 179 -3.3 103960 72
2001-12-14 07:32:58 51°13.689 2°55.904 1.8 220 -3.3 103960 72
2001-12-14 07:33:03 51°13.689 2°55.905 3.5 163 -3.3 103960 72
2001-12-14 07:33:08 51°13.689 2°55.905 2.8 125 -3.3 103960 72
2001-12-14 07:33:13 51°13.689 2°55.905 2.1 123 -3.4 103960 72
2001-12-14 07:33:18 51°13.689 2°55.905 1.6 216 -3.4 103960 72
2001-12-14 07:33:23 51°13.689 2°55.905 2 189 -3.4 103960 72
2001-12-14 07:33:28 51°13.689 2°55.905 4.4 208 -3.4 103960 72
2001-12-14 07:36:08 51°13.688 2°55.905 2.6 202 -999 -999 -999
2001-12-14 07:36:13 51°13.688 2°55.905 2.1 182 -3.4 103960 73
2001-12-14 07:36:18 51°13.688 2°55.905 3.3 180 -3.4 103960 73
2001-12-14 07:36:23 51°13.689 2°55.905 2.8 162 -3.4 103960 73
2001-12-14 07:36:28 51°13.689 2°55.905 1.5 181 -3.4 103960 73
2001-12-14 07:36:33 51°13.689 2°55.905 1.8 173 -3.3 103960 73
2001-12-14 07:36:38 51°13.689 2°55.905 2.8 194 -3.3 103960 73
2001-12-14 07:36:43 51°13.689 2°55.905 3.7 169 -3.3 103960 73
2001-12-14 07:36:48 51°13.689 2°55.905 2.5 132 -3.3 103960 73
2001-12-14 07:36:53 51°13.689 2°55.905 3.2 178 -3.4 103960 73
2001-12-14 07:36:58 51°13.689 2°55.905 4.1 164 -3.4 103960 73
2001-12-14 07:37:03 51°13.689 2°55.905 4.6 170 -3.4 103960 73
2001-12-14 07:37:08 51°13.689 2°55.905 2.7 203 -3.4 103960 73
2001-12-14 07:37:13 51°13.689 2°55.905 3.2 134 -3.4 103960 73
2001-12-14 07:37:18 51°13.689 2°55.905 3.4 185 -3.4 103960 73
2001-12-14 07:37:23 51°13.689 2°55.905 3.6 149 -3.4 103960 73
2001-12-14 07:37:27 51°13.689 2°55.905 2.6 184 -3.4 103960 73
2001-12-14 07:37:33 51°13.689 2°55.905 1.9 191 -3.4 103960 73
2001-12-14 07:37:38 51°13.689 2°55.905 3.3 153 -3.4 103960 73
2001-12-14 07:37:43 51°13.689 2°55.905 2.2 211 -3.4 103960 73
2001-12-14 07:37:48 51°13.689 2°55.905 1.8 187 -3.4 103960 73
2001-12-14 07:37:53 51°13.689 2°55.905 3 190 -3.4 103960 73
2001-12-14 07:37:58 51°13.689 2°55.905 2.6 180 -3.4 103960 73
2001-12-14 07:38:03 51°13.689 2°55.905 2.5 181 -3.4 103960 73
2001-12-14 07:38:08 51°13.689 2°55.905 2.1 162 -3.4 103960 73
2001-12-14 07:38:14 51°13.689 2°55.905 2.1 165 -3.4 103960 73
2001-12-14 07:38:18 51°13.689 2°55.905 2.3 208 -3.4 103960 73
2001-12-14 07:38:23 51°13.689 2°55.905 2.5 186 -3.4 103960 73
2001-12-14 07:38:28 51°13.689 2°55.905 1.9 175 -3.4 103960 73
2001-12-14 07:38:33 51°13.689 2°55.905 2 186 -3.4 103960 73
2001-12-14 07:38:38 51°13.689 2°55.905 2.4 148 -3.4 103960 73
2001-12-14 07:38:43 51°13.689 2°55.905 2.7 161 -3.4 103960 73
2001-12-14 07:38:48 51°13.689 2°55.905 2.9 187 -3.4 103960 73
2001-12-14 07:38:53 51°13.689 2°55.905 2.1 183 -3.4 103960 73
2001-12-14 07:38:58 51°13.689 2°55.905 1.1 204 -3.4 103960 73
2001-12-14 07:39:03 51°13.689 2°55.905 1.7 185 -3.4 103960 73
2001-12-14 07:39:09 51°13.689 2°55.905 2.1 172 -3.4 103960 73
2001-12-14 07:39:14 51°13.689 2°55.905 2.8 159 -3.4 103960 73
2001-12-14 07:39:18 51°13.689 2°55.905 2 193 -3.4 103960 73
2001-12-14 07:39:23 51°13.689 2°55.905 4.7 186 -3.4 103960 73
2001-12-14 07:39:28 51°13.689 2°55.905 6.2 183 -3.4 103960 73
2001-12-14 07:39:33 51°13.689 2°55.905 5 185 -3.4 103960 73
2001-12-14 07:39:38 51°13.689 2°55.905 4.1 146 -3.4 103960 73
2001-12-14 07:39:43 51°13.689 2°55.905 3.7 205 -3.4 103960 73
2001-12-14 07:39:49 51°13.689 2°55.905 4.5 170 -3.4 103960 73
2001-12-14 07:39:53 51°13.689 2°55.905 3.8 162 -3.4 103960 73
2001-12-14 07:39:58 51°13.689 2°55.905 4.6 198 -3.4 103960 73
2001-12-14 07:40:03 51°13.689 2°55.905 2.2 187 -3.4 103960 73
2001-12-14 07:40:08 51°13.689 2°55.905 2.2 193 -3.4 103960 73
2001-12-14 07:40:13 51°13.689 2°55.905 1.6 193 -3.4 103960 73
2001-12-14 07:40:18 51°13.689 2°55.905 1.5 212 -3.4 103960 73
2001-12-14 07:40:23 51°13.689 2°55.905 1.1 210 -3.4 103960 73
2001-12-14 07:40:28 51°13.689 2°55.905 1.6 207 -3.4 103960 73
2001-12-14 07:40:33 51°13.689 2°55.905 2 192 -3.4 103960 73
2001-12-14 07:40:38 51°13.689 2°55.905 2 200 -3.4 103960 73
2001-12-14 07:40:43 51°13.689 2°55.905 3 195 -3.4 103960 73
2001-12-14 07:40:48 51°13.689 2°55.905 4.1 194 -3.4 103960 73
2001-12-14 07:40:53 51°13.689 2°55.905 3.8 188 -3.4 103960 73
2001-12-14 07:40:58 51°13.689 2°55.905 2.5 189 -3.4 103960 73
2001-12-14 07:41:03 51°13.689 2°55.905 3.2 182 -3.4 103970 74
2001-12-14 07:41:08 51°13.689 2°55.905 1.8 175 -3.4 103970 74
2001-12-14 07:41:13 51°13.689 2°55.905 1.5 170 -3.4 103960 74
2001-12-14 07:41:19 51°13.689 2°55.905 1.8 155 -3.4 103960 74
2001-12-14 07:41:23 51°13.689 2°55.905 1.8 187 -3.4 103960 73
2001-12-14 07:41:28 51°13.689 2°55.905 1.1 204 -3.4 103960 73
2001-12-14 07:41:33 51°13.689 2°55.905 1 181 -3.4 103970 73
2001-12-14 07:41:38 51°13.689 2°55.905 1.4 173 -3.4 103970 73
2001-12-14 07:41:43 51°13.689 2°55.905 1.5 182 -3.4 103960 74
2001-12-14 07:41:48 51°13.689 2°55.905 4.6 208 -3.4 103960 74
2001-12-14 07:41:54 51°13.689 2°55.905 3.6 189 -3.4 103960 74
2001-12-14 07:41:58 51°13.689 2°55.905 3.5 129 -3.4 103960 74
2001-12-14 07:42:03 51°13.689 2°55.905 3.5 149 -3.4 103960 74
2001-12-14 07:42:08 51°13.689 2°55.905 4.3 169 -3.4 103960 74
2001-12-14 07:42:13 51°13.689 2°55.905 5.6 169 -3.4 103960 74
2001-12-14 07:42:18 51°13.689 2°55.905 4.6 186 -3.4 103960 74
2001-12-14 07:42:23 51°13.689 2°55.905 2.8 194 -3.4 103960 74
2001-12-14 07:42:28 51°13.689 2°55.905 5.6 165 -3.4 103960 74
2001-12-14 07:42:33 51°13.689 2°55.905 3.9 151 -3.4 103960 74
2001-12-14 07:42:38 51°13.689 2°55.905 3.7 185 -3.4 103960 74
2001-12-14 07:42:43 51°13.689 2°55.905 4 186 -3.4 103960 74
2001-12-14 07:42:48 51°13.689 2°55.905 2.9 206 -3.4 103960 74
2001-12-14 07:42:53 51°13.689 2°55.905 4.4 205 -3.4 103970 74
2001-12-14 07:42:58 51°13.689 2°55.905 2.8 145 -3.4 103970 74
2001-12-14 07:43:03 51°13.689 2°55.905 2.4 153 -3.4 103960 74
2001-12-14 07:43:08 51°13.689 2°55.905 2.7 196 -3.4 103960 74
2001-12-14 07:43:13 51°13.689 2°55.904 2.8 186 -3.4 103960 74
2001-12-14 07:43:18 51°13.689 2°55.904 2.3 178 -3.4 103960 74
2001-12-14 07:43:23 51°13.689 2°55.904 2.7 211 -3.4 103960 74
2001-12-14 07:43:28 51°13.689 2°55.904 2.9 177 -3.4 103960 74
2001-12-14 07:43:34 51°13.689 2°55.904 2.5 184 -3.4 103960 74
2001-12-14 07:43:38 51°13.689 2°55.905 2.3 223 -3.4 103960 74
2001-12-14 07:43:43 51°13.689 2°55.905 1.4 158 -3.4 103960 74
2001-12-14 07:43:48 51°13.689 2°55.905 2.9 168 -3.4 103960 74
2001-12-14 07:43:53 51°13.689 2°55.905 3.1 181 -3.4 103960 74
2001-12-14 07:43:58 51°13.689 2°55.905 3.8 156 -3.4 103960 74
2001-12-14 07:44:03 51°13.689 2°55.905 4 162 -3.4 103960 74
2001-12-14 07:44:08 51°13.689 2°55.905 2.6 194 -3.4 103960 74
2001-12-14 07:44:13 51°13.688 2°55.905 3.2 192 -3.4 103960 74
2001-12-14 07:44:18 51°13.688 2°55.905 3.1 170 -3.4 103960 74
2001-12-14 07:44:23 51°13.688 2°55.905 3.9 144 -3.4 103960 74
2001-12-14 07:44:28 51°13.688 2°55.905 3.9 203 -3.4 103960 74
2001-12-14 07:44:33 51°13.688 2°55.905 3.6 193 -3.4 103960 75
2001-12-14 07:44:39 51°13.688 2°55.905 3.7 188 -3.4 103960 75
2001-12-14 07:44:43 51°13.688 2°55.905 5.9 195 -3.4 103960 75
2001-12-14 07:44:48 51°13.688 2°55.905 3.5 167 -3.4 103960 75
2001-12-14 07:44:52 51°13.688 2°55.905 5.1 156 -3.4 103960 75
2001-12-14 07:44:58 51°13.688 2°55.905 3.5 199 -3.4 103960 75
2001-12-14 07:45:03 51°13.689 2°55.905 3 212 -3.4 103960 75
2001-12-14 07:45:07 51°13.689 2°55.905 3.4 187 -3.4 103960 75
2001-12-14 07:45:13 51°13.689 2°55.905 2.8 195 -3.4 103960 75
2001-12-14 07:45:18 51°13.689 2°55.905 2.9 201 -3.4 103960 75
2001-12-14 07:45:23 51°13.689 2°55.905 3.6 201 -3.4 103960 75
2001-12-14 07:45:28 51°13.689 2°55.905 2.3 154 -3.4 103960 75
2001-12-14 07:45:33 51°13.689 2°55.905 2.7 165 -3.4 103960 75
2001-12-14 07:45:38 51°13.689 2°55.905 3.3 185 -3.4 103960 75
2001-12-14 07:45:43 51°13.689 2°55.905 2.8 131 -3.4 103960 75
2001-12-14 07:45:48 51°13.689 2°55.905 2.8 166 -3.4 103960 75
2001-12-14 07:45:53 51°13.689 2°55.905 2.1 147 -3.4 103960 75
2001-12-14 07:45:58 51°13.689 2°55.905 2 165 -3.4 103960 75
2001-12-14 07:46:03 51°13.689 2°55.905 2.6 179 -3.4 103960 75
2001-12-14 07:46:09 51°13.689 2°55.905 3.8 197 -3.4 103960 75
2001-12-14 07:46:13 51°13.689 2°55.905 2.9 212 -3.4 103960 75
2001-12-14 07:46:18 51°13.689 2°55.904 2.6 175 -3.4 103960 75
2001-12-14 07:46:23 51°13.689 2°55.904 2.1 196 -3.4 103960 75
2001-12-14 07:46:29 51°13.689 2°55.905 2.1 178 -3.4 103960 75
2001-12-14 07:46:33 51°13.689 2°55.905 3 195 -3.4 103960 75
2001-12-14 07:46:38 51°13.689 2°55.905 2.4 185 -3.4 103960 75
2001-12-14 07:46:43 51°13.689 2°55.904 3.1 179 -3.4 103960 75
2001-12-14 07:46:48 51°13.689 2°55.904 3.1 177 -3.4 103960 75
2001-12-14 07:46:54 51°13.689 2°55.904 2.9 165 -3.4 103960 75
2001-12-14 07:46:58 51°13.689 2°55.904 2.8 164 -3.4 103960 75
2001-12-14 07:47:03 51°13.688 2°55.904 3 190 -3.4 103960 75
2001-12-14 07:47:08 51°13.689 2°55.904 1.7 171 -3.4 103960 75
2001-12-14 07:47:13 51°13.689 2°55.904 2 179 -3.4 103960 75
2001-12-14 07:47:18 51°13.688 2°55.904 3 145 -3.4 103960 75
2001-12-14 07:47:23 51°13.689 2°55.904 2.3 178 -3.4 103960 75
2001-12-14 07:47:28 51°13.689 2°55.904 2.5 168 -3.4 103960 75
2001-12-14 07:47:34 51°13.689 2°55.904 3.3 155 -3.4 103960 75
2001-12-14 07:47:38 51°13.689 2°55.904 3.6 163 -3.4 103960 75
2001-12-14 07:47:43 51°13.689 2°55.904 3.6 189 -3.4 103960 75
2001-12-14 07:47:48 51°13.689 2°55.904 3.3 189 -3.4 103960 75
2001-12-14 07:47:53 51°13.688 2°55.904 3.8 162 -3.4 103960 75
2001-12-14 07:47:58 51°13.688 2°55.904 3.4 177 -3.4 103960 75
2001-12-14 07:48:03 51°13.688 2°55.904 2.6 183 -3.4 103960 75
2001-12-14 07:48:08 51°13.688 2°55.904 3.1 185 -3.4 103960 75
2001-12-14 07:48:13 51°13.688 2°55.904 2.5 199 -3.4 103960 75
2001-12-14 07:48:18 51°13.688 2°55.904 2.5 194 -3.4 103960 75
2001-12-14 07:48:23 51°13.689 2°55.904 3 199 -3.4 103960 75
2001-12-14 07:48:28 51°13.689 2°55.904 3.8 169 -3.4 103960 75
2001-12-14 07:48:33 51°13.689 2°55.904 4.1 171 -3.4 103960 75
2001-12-14 07:48:38 51°13.689 2°55.904 3.5 175 -3.4 103960 75
2001-12-14 07:48:43 51°13.689 2°55.904 2.3 207 -3.4 103960 75
2001-12-14 07:48:48 51°13.689 2°55.904 3.1 186 -3.4 103960 75
2001-12-14 07:48:53 51°13.689 2°55.904 4.2 171 -3.4 103960 75
2001-12-14 07:48:58 51°13.689 2°55.904 2.8 184 -3.4 103960 75
2001-12-14 07:49:03 51°13.689 2°55.905 3.1 166 -3.4 103960 75
2001-12-14 07:49:08 51°13.689 2°55.905 3.8 161 -3.4 103960 75
2001-12-14 07:49:13 51°13.689 2°55.905 4.1 159 -3.4 103960 75
2001-12-14 07:49:18 51°13.689 2°55.905 3.4 166 -3.4 103960 75
2001-12-14 07:49:23 51°13.689 2°55.905 3 165 -3.4 103960 75
2001-12-14 07:49:28 51°13.689 2°55.905 4.5 170 -3.4 103960 75
2001-12-14 07:49:34 51°13.689 2°55.905 4.8 168 -3.4 103960 75
2001-12-14 07:49:38 51°13.689 2°55.905 4.1 169 -3.4 103960 75
2001-12-14 07:49:43 51°13.689 2°55.905 5.5 196 -3.4 103960 75
2001-12-14 07:49:48 51°13.689 2°55.905 4.5 178 -3.4 103960 75
2001-12-14 07:49:53 51°13.689 2°55.905 5.7 175 -3.4 103960 75
2001-12-14 07:49:58 51°13.689 2°55.905 5.3 166 -3.4 103960 75
2001-12-14 07:50:03 51°13.689 2°55.905 5.2 154 -3.4 103960 75
2001-12-14 07:50:09 51°13.689 2°55.905 4.2 160 -3.4 103960 75
2001-12-14 07:50:14 51°13.689 2°55.905 3.6 176 -3.4 103960 75
2001-12-14 07:50:18 51°13.689 2°55.905 3.4 171 -3.4 103960 75
2001-12-14 07:50:23 51°13.689 2°55.905 3.2 160 -3.4 103960 75
2001-12-14 07:50:28 51°13.689 2°55.905 3.7 174 -3.4 103960 75
2001-12-14 07:50:33 51°13.689 2°55.905 4.4 203 -3.4 103960 75
2001-12-14 07:50:38 51°13.689 2°55.905 4.3 212 -3.4 103960 75
2001-12-14 07:50:43 51°13.689 2°55.905 4 185 -3.4 103960 75
2001-12-14 07:50:48 51°13.689 2°55.905 4.9 183 -3.4 103960 75
2001-12-14 07:50:53 51°13.689 2°55.905 4.9 191 -3.4 103960 75
2001-12-14 07:50:58 51°13.689 2°55.905 5.2 178 -3.4 103960 75
2001-12-14 07:51:03 51°13.689 2°55.905 5.2 163 -3.4 103960 75
2001-12-14 07:51:08 51°13.689 2°55.905 5.1 162 -3.4 103960 75
2001-12-14 07:51:13 51°13.689 2°55.905 4.7 186 -3.4 103960 75
2001-12-14 07:51:18 51°13.689 2°55.905 4.8 176 -3.4 103960 75
2001-12-14 07:51:23 51°13.689 2°55.905 4.6 169 -3.4 103960 75
2001-12-14 07:51:28 51°13.689 2°55.905 3.9 163 -3.4 103960 75
2001-12-14 07:51:34 51°13.689 2°55.905 4.2 173 -3.4 103960 75
2001-12-14 07:51:38 51°13.689 2°55.905 5.1 172 -3.4 103960 75
2001-12-14 07:51:43 51°13.688 2°55.905 5.4 194 -3.4 103960 75
2001-12-14 07:51:48 51°13.688 2°55.906 3.2 173 -3.4 103960 75
2001-12-14 07:51:53 51°13.689 2°55.906 2.6 161 -3.4 103960 75
2001-12-14 07:51:58 51°13.689 2°55.906 3.1 190 -3.4 103960 75
2001-12-14 07:52:03 51°13.689 2°55.906 4.8 170 -3.4 103960 75
2001-12-14 07:52:08 51°13.689 2°55.906 4.9 170 -3.4 103960 75
2001-12-14 07:52:13 51°13.689 2°55.906 5.4 152 -3.4 103960 75
2001-12-14 07:52:18 51°13.689 2°55.906 4.7 169 -3.4 103960 75
2001-12-14 07:52:23 51°13.689 2°55.906 4.3 182 -3.4 103960 75
2001-12-14 07:52:28 51°13.689 2°55.906 4.6 169 -3.4 103960 75
2001-12-14 07:52:33 51°13.689 2°55.906 4.5 172 -3.4 103960 75
2001-12-14 07:52:38 51°13.689 2°55.906 4.9 182 -3.4 103960 75
2001-12-14 07:52:43 51°13.688 2°55.906 3.7 177 -3.4 103960 75
2001-12-14 07:52:48 51°13.689 2°55.906 4.5 176 -3.4 103960 75
2001-12-14 07:52:53 51°13.689 2°55.906 5.2 184 -3.4 103960 75
2001-12-14 07:52:58 51°13.689 2°55.906 5 182 -3.4 103960 75
2001-12-14 07:53:03 51°13.689 2°55.906 3.6 161 -3.4 103960 75
2001-12-14 07:53:08 51°13.689 2°55.906 1.5 231 -3.4 103960 75
2001-12-14 07:53:13 51°13.689 2°55.906 1.6 182 -3.4 103960 75
2001-12-14 07:53:18 51°13.689 2°55.906 3.2 219 -3.4 103960 75
2001-12-14 07:53:23 51°13.689 2°55.906 3.3 182 -3.4 103960 75
2001-12-14 07:53:29 51°13.689 2°55.906 3.2 150 -3.4 103960 75
2001-12-14 07:53:34 51°13.689 2°55.906 4.1 144 -3.4 103960 76
2001-12-14 07:53:38 51°13.689 2°55.906 3.6 165 -3.4 103960 76
2001-12-14 07:53:43 51°13.688 2°55.906 3 211 -3.4 103960 76
2001-12-14 07:53:48 51°13.688 2°55.906 1.8 194 -3.4 103960 76
2001-12-14 07:53:53 51°13.688 2°55.906 2.8 152 -3.4 103960 75
2001-12-14 07:53:58 51°13.688 2°55.906 4.8 158 -3.4 103960 75
2001-12-14 07:54:03 51°13.688 2°55.906 3.5 172 -3.4 103960 76
2001-12-14 07:54:08 51°13.688 2°55.906 3.4 187 -3.4 103960 76
2001-12-14 07:54:13 51°13.688 2°55.906 4.1 160 -3.4 103960 76
2001-12-14 07:54:18 51°13.688 2°55.906 4.7 161 -3.4 103960 76
2001-12-14 07:54:23 51°13.688 2°55.905 4.5 163 -3.4 103960 76
2001-12-14 07:54:28 51°13.688 2°55.905 3.5 144 -3.4 103960 76
2001-12-14 07:54:33 51°13.688 2°55.905 2.5 191 -3.4 103970 76
2001-12-14 07:54:38 51°13.688 2°55.905 2.8 204 -3.4 103970 76
2001-12-14 07:54:43 51°13.688 2°55.905 4.1 200 -3.4 103960 76
2001-12-14 07:54:48 51°13.688 2°55.905 2.9 198 -3.4 103960 76
2001-12-14 07:54:53 51°13.688 2°55.905 2.2 167 -3.3 103960 76
2001-12-14 07:54:58 51°13.688 2°55.905 4 195 -3.3 103960 76
2001-12-14 07:55:03 51°13.688 2°55.905 3.7 187 -3.4 103960 76
2001-12-14 07:55:08 51°13.688 2°55.906 3.2 159 -3.4 103960 76
2001-12-14 07:55:13 51°13.688 2°55.906 2.9 156 -3.4 103960 76
2001-12-14 07:55:18 51°13.689 2°55.906 2 163 -3.4 103960 76
2001-12-14 07:55:23 51°13.689 2°55.905 3 166 -3.4 103970 76
2001-12-14 07:55:28 51°13.689 2°55.905 3.6 171 -3.4 103970 76
2001-12-14 07:55:33 51°13.689 2°55.906 5 158 -3.4 103960 76
2001-12-14 07:55:38 51°13.689 2°55.905 4.5 172 -3.4 103960 76
2001-12-14 07:55:43 51°13.689 2°55.905 5 176 -3.3 103960 76
2001-12-14 07:55:48 51°13.689 2°55.905 4.9 171 -3.3 103960 76
2001-12-14 07:55:53 51°13.689 2°55.905 4.4 150 -3.3 103960 76
2001-12-14 07:55:58 51°13.689 2°55.905 5.1 180 -3.3 103960 76
2001-12-14 07:56:03 51°13.689 2°55.905 5 175 -3.3 103960 76
2001-12-14 07:56:08 51°13.689 2°55.905 3.7 185 -3.3 103960 76
2001-12-14 07:56:13 51°13.689 2°55.905 5.1 199 -3.3 103960 76
2001-12-14 07:56:18 51°13.689 2°55.905 2.6 169 -3.3 103960 76
2001-12-14 07:56:24 51°13.689 2°55.905 3.8 193 -3.3 103960 76
2001-12-14 07:56:28 51°13.689 2°55.905 3.5 172 -3.3 103960 76
2001-12-14 07:56:33 51°13.689 2°55.905 4 161 -3.4 103960 76
2001-12-14 07:56:38 51°13.688 2°55.906 3.7 192 -3.4 103960 76
2001-12-14 07:56:43 51°13.688 2°55.906 3.1 158 -3.3 103960 76
2001-12-14 07:56:48 51°13.688 2°55.906 4.3 170 -3.3 103960 76
2001-12-14 07:56:53 51°13.688 2°55.906 4.7 166 -3.3 103960 76
2001-12-14 07:56:58 51°13.688 2°55.906 5.4 169 -3.3 103960 76
2001-12-14 07:57:03 51°13.688 2°55.906 5.5 159 -3.3 103960 75
2001-12-14 07:57:08 51°13.688 2°55.906 4.3 160 -3.3 103960 75
2001-12-14 07:57:13 51°13.688 2°55.905 3.7 155 -3.4 103960 75
2001-12-14 07:57:18 51°13.688 2°55.905 3.4 164 -3.4 103960 75
2001-12-14 07:57:23 51°13.687 2°55.905 4.1 167 -3.4 103950 75
2001-12-14 07:57:28 51°13.687 2°55.905 4.2 168 -3.4 103950 75
2001-12-14 07:57:33 51°13.687 2°55.905 4.9 167 -3.4 103960 75
2001-12-14 07:57:38 51°13.687 2°55.905 4 175 -3.4 103960 75
2001-12-14 07:57:43 51°13.687 2°55.905 3.2 168 -3.4 103960 75
2001-12-14 07:57:48 51°13.687 2°55.905 4.6 145 -3.4 103960 75
2001-12-14 07:57:53 51°13.687 2°55.905 3.5 142 -3.4 103960 75
2001-12-14 07:57:58 51°13.687 2°55.905 4 156 -3.4 103960 75
2001-12-14 07:58:03 51°13.687 2°55.905 3.7 177 -3.4 103960 75
2001-12-14 07:58:08 51°13.686 2°55.905 3.6 156 -3.4 103960 75
2001-12-14 07:58:13 51°13.687 2°55.905 3.5 158 -3.4 103960 75
2001-12-14 07:58:18 51°13.688 2°55.905 3.6 155 -3.4 103960 75
2001-12-14 07:58:23 51°13.687 2°55.905 3 149 -3.4 103960 76
2001-12-14 07:58:28 51°13.687 2°55.904 2.1 188 -3.4 103960 76
2001-12-14 07:58:33 51°13.687 2°55.904 1.8 210 -3.3 103960 76
2001-12-14 07:58:38 51°13.687 2°55.904 4.5 154 -3.3 103960 76
2001-12-14 07:58:43 51°13.687 2°55.903 2.2 179 -3.3 103960 76
2001-12-14 07:58:48 51°13.688 2°55.901 3.1 190 -3.3 103960 76
2001-12-14 07:58:53 51°13.688 2°55.899 2.7 191 -3.4 103960 76
2001-12-14 07:58:58 51°13.689 2°55.896 1.7 212 -3.4 103960 76
2001-12-14 07:59:03 51°13.69 2°55.892 1.4 212 -3.3 103960 76
2001-12-14 07:59:09 51°13.691 2°55.885 0.6 129 -3.3 103960 76
2001-12-14 07:59:14 51°13.691 2°55.879 0.7 58 -3.3 103960 76
2001-12-14 07:59:19 51°13.692 2°55.872 0.6 130 -3.3 103960 76
2001-12-14 07:59:24 51°13.692 2°55.866 2.1 115 -3.3 103960 76
2001-12-14 07:59:29 51°13.693 2°55.859 3.2 106 -3.3 103960 76
2001-12-14 07:59:34 51°13.694 2°55.853 2.3 128 -3.3 103960 76
2001-12-14 07:59:39 51°13.694 2°55.846 3.2 129 -3.3 103960 76
2001-12-14 07:59:43 51°13.695 2°55.841 3 115 -3.3 103960 76
2001-12-14 07:59:48 51°13.695 2°55.835 1.9 107 -3.3 103960 76
2001-12-14 07:59:53 51°13.695 2°55.829 1.4 124 -3.3 103960 76
2001-12-14 07:59:58 51°13.696 2°55.822 2.4 123 -3.3 103960 76
2001-12-14 08:00:03 51°13.696 2°55.816 2.8 138 -3.3 103960 76
2001-12-14 08:00:08 51°13.696 2°55.809 3.7 132 -3.3 103960 76
2001-12-14 08:00:14 51°13.696 2°55.802 3.1 127 -3.3 103960 76
2001-12-14 08:00:19 51°13.696 2°55.796 3.5 146 -3.3 103960 76
2001-12-14 08:00:23 51°13.696 2°55.79 3.5 117 -3.3 103960 76
2001-12-14 08:00:28 51°13.696 2°55.784 3.9 121 -3.3 103960 76
2001-12-14 08:00:33 51°13.696 2°55.778 4.1 119 -3.3 103960 76
2001-12-14 08:00:38 51°13.695 2°55.773 2.8 139 -3.3 103960 76
2001-12-14 08:00:43 51°13.695 2°55.767 2.7 123 -3.3 103960 76
2001-12-14 08:00:48 51°13.695 2°55.762 3.2 118 -3.3 103960 76
2001-12-14 08:00:53 51°13.696 2°55.758 3 119 -3.3 103960 76
2001-12-14 08:00:58 51°13.696 2°55.753 2.6 119 -3.3 103960 76
2001-12-14 08:01:03 51°13.696 2°55.749 3 126 -3.3 103960 76
2001-12-14 08:01:08 51°13.696 2°55.748 4.1 121 -3.3 103960 76
2001-12-14 08:01:13 51°13.697 2°55.748 4.3 122 -3.3 103960 76
2001-12-14 08:01:18 51°13.697 2°55.749 3.5 98 -3.3 103960 76
2001-12-14 08:01:23 51°13.699 2°55.751 4.1 92 -3.3 103970 76
2001-12-14 08:01:28 51°13.702 2°55.753 4.6 102 -3.3 103970 76
2001-12-14 08:01:33 51°13.706 2°55.755 4.7 107 -3.3 103960 76
2001-12-14 08:01:38 51°13.711 2°55.756 4.7 88 -3.3 103960 76
2001-12-14 08:01:43 51°13.716 2°55.756 5.5 72 -3.3 103960 76
2001-12-14 08:01:48 51°13.722 2°55.754 4.1 56 -3.3 103960 76
2001-12-14 08:01:53 51°13.729 2°55.75 2.4 78 -3.3 103960 76
2001-12-14 08:01:58 51°13.735 2°55.744 2.7 104 -3.3 103960 76
2001-12-14 08:02:03 51°13.742 2°55.736 2.8 110 -3.3 103960 76
2001-12-14 08:02:09 51°13.749 2°55.725 2.5 98 -3.3 103960 76
2001-12-14 08:02:13 51°13.753 2°55.718 2.2 72 -3.3 103960 76
2001-12-14 08:02:18 51°13.758 2°55.708 4 41 -3.3 103960 76
2001-12-14 08:02:23 51°13.764 2°55.699 3.7 38 -3.3 103960 76
2001-12-14 08:02:28 51°13.77 2°55.689 3.9 73 -3.3 103960 76
2001-12-14 08:02:33 51°13.775 2°55.68 3.4 53 -3.3 103970 76
2001-12-14 08:02:38 51°13.78 2°55.671 1.7 82 -3.3 103970 76
2001-12-14 08:02:43 51°13.786 2°55.663 1.7 92 -3.3 103970 76
2001-12-14 08:02:48 51°13.792 2°55.655 3.2 82 -3.3 103970 76
2001-12-14 08:02:53 51°13.798 2°55.648 3.4 93 -3.3 103970 76
2001-12-14 08:02:58 51°13.804 2°55.641 2.9 111 -3.3 103970 76
2001-12-14 08:03:03 51°13.81 2°55.634 3.3 91 -3.3 103970 76
2001-12-14 08:03:08 51°13.816 2°55.628 3.3 71 -3.3 103970 76
2001-12-14 08:03:13 51°13.823 2°55.623 2.4 89 -3.3 103970 76
2001-12-14 08:03:18 51°13.829 2°55.619 3.1 132 -3.3 103970 76
2001-12-14 08:03:23 51°13.836 2°55.614 2.5 131 -3.3 103970 76
2001-12-14 08:03:28 51°13.843 2°55.61 3.7 61 -3.3 103970 76
2001-12-14 08:03:33 51°13.849 2°55.605 3 53 -3.3 103970 76
2001-12-14 08:03:38 51°13.856 2°55.6 4.2 59 -3.3 103970 76
2001-12-14 08:03:43 51°13.862 2°55.596 4 73 -3.3 103970 77
2001-12-14 08:03:48 51°13.868 2°55.591 3.8 72 -3.3 103970 77
2001-12-14 08:03:53 51°13.874 2°55.586 3.9 69 -3.3 103970 76
2001-12-14 08:03:59 51°13.882 2°55.58 5.8 39 -3.3 103970 76
2001-12-14 08:04:03 51°13.887 2°55.577 4.6 49 -3.3 103970 76
2001-12-14 08:04:08 51°13.894 2°55.572 3.3 87 -3.3 103970 76
2001-12-14 08:04:13 51°13.901 2°55.568 3.1 99 -3.3 103970 76
2001-12-14 08:04:18 51°13.908 2°55.563 3.2 88 -3.3 103970 76
2001-12-14 08:04:23 51°13.914 2°55.558 1.9 68 -3.3 103960 76
2001-12-14 08:04:28 51°13.921 2°55.553 4.4 65 -3.3 103960 76
2001-12-14 08:04:34 51°13.93 2°55.548 3.9 72 -3.3 103970 76
2001-12-14 08:04:38 51°13.935 2°55.544 3.9 77 -3.3 103970 76
2001-12-14 08:04:43 51°13.942 2°55.54 4.2 68 -3.3 103960 76
2001-12-14 08:04:48 51°13.95 2°55.535 3.2 73 -3.3 103960 76
2001-12-14 08:04:54 51°13.958 2°55.53 2.9 84 -3.3 103960 77
2001-12-14 08:04:58 51°13.964 2°55.526 3.8 76 -3.3 103960 77
2001-12-14 08:05:03 51°13.971 2°55.521 2.8 77 -3.3 103960 77
2001-12-14 08:05:08 51°13.979 2°55.517 3.7 60 -3.3 103960 77
2001-12-14 08:05:13 51°13.986 2°55.512 5.1 53 -3.3 103960 77
2001-12-14 08:05:18 51°13.993 2°55.507 3.1 125 -3.3 103960 77
2001-12-14 08:05:23 51°14.001 2°55.502 3.5 52 -3.3 103960 77
2001-12-14 08:05:28 51°14.009 2°55.497 2.8 59 -3.3 103960 77
2001-12-14 08:05:33 51°14.016 2°55.492 3.3 55 -3.3 103960 76
2001-12-14 08:05:39 51°14.025 2°55.486 2.5 72 -3.3 103960 76
2001-12-14 08:05:43 51°14.031 2°55.482 2.5 105 -3.3 103960 76
2001-12-14 08:05:48 51°14.039 2°55.477 3.2 80 -3.3 103960 76
2001-12-14 08:05:53 51°14.046 2°55.472 2.9 79 -3.3 103960 76
2001-12-14 08:05:58 51°14.054 2°55.466 3.6 72 -3.3 103960 76
2001-12-14 08:06:03 51°14.061 2°55.461 2.8 93 -3.3 103960 77
2001-12-14 08:06:08 51°14.069 2°55.455 2.9 80 -3.3 103960 77
2001-12-14 08:06:13 51°14.077 2°55.45 3.6 88 -3.3 103960 77
2001-12-14 08:06:18 51°14.085 2°55.444 3.6 82 -3.3 103960 77
2001-12-14 08:06:23 51°14.094 2°55.439 4.1 78 -3.3 103960 77
2001-12-14 08:06:28 51°14.102 2°55.433 3.2 81 -3.3 103960 77
2001-12-14 08:06:33 51°14.11 2°55.427 3.5 76 -3.3 103960 78
2001-12-14 08:06:38 51°14.119 2°55.42 3.3 86 -3.3 103960 78
2001-12-14 08:06:43 51°14.127 2°55.413 3.4 89 -3.3 103960 78
2001-12-14 08:06:48 51°14.136 2°55.406 3.8 94 -3.3 103960 78
2001-12-14 08:06:53 51°14.144 2°55.398 3.9 91 -3.3 103960 77
2001-12-14 08:06:58 51°14.153 2°55.391 4.6 79 -3.3 103960 77
2001-12-14 08:07:03 51°14.161 2°55.383 4.7 68 -3.3 103960 77
2001-12-14 08:07:08 51°14.17 2°55.375 4.2 71 -3.3 103960 77
2001-12-14 08:07:14 51°14.18 2°55.364 4.7 69 -3.3 103960 77
2001-12-14 08:07:18 51°14.186 2°55.357 3.4 76 -3.3 103960 77
2001-12-14 08:07:23 51°14.194 2°55.348 3.7 89 -3.3 103960 77
2001-12-14 08:07:29 51°14.204 2°55.336 4.6 74 -3.3 103960 77
2001-12-14 08:07:33 51°14.211 2°55.329 4.9 68 -3.3 103950 77
2001-12-14 08:07:38 51°14.219 2°55.319 3.2 90 -3.3 103950 77
2001-12-14 08:07:43 51°14.227 2°55.309 4.7 71 -3.3 103950 77
2001-12-14 08:07:48 51°14.235 2°55.299 2.9 75 -3.3 103950 77
2001-12-14 08:07:53 51°14.242 2°55.288 3.5 79 -3.3 103960 77
2001-12-14 08:07:58 51°14.249 2°55.277 2.6 58 -3.3 103960 77
2001-12-14 08:08:03 51°14.256 2°55.264 3.4 57 -3.4 103960 77
2001-12-14 08:08:08 51°14.262 2°55.252 3.7 66 -3.4 103960 77
2001-12-14 08:08:13 51°14.269 2°55.24 2.9 83 -3.4 103960 77
2001-12-14 08:08:18 51°14.276 2°55.227 2 51 -3.4 103960 77
2001-12-14 08:08:23 51°14.282 2°55.215 2.7 48 -3.4 103960 77
2001-12-14 08:08:28 51°14.288 2°55.202 3 51 -3.4 103960 77
2001-12-14 08:08:33 51°14.295 2°55.189 3.9 49 -3.4 103960 77
2001-12-14 08:08:38 51°14.301 2°55.176 1.4 63 -3.4 103960 77
2001-12-14 08:08:43 51°14.307 2°55.163 1.7 84 -3.4 103960 78
2001-12-14 08:08:48 51°14.314 2°55.149 2.4 76 -3.4 103960 78
2001-12-14 08:08:53 51°14.32 2°55.134 1.7 7 -3.4 103960 78
2001-12-14 08:08:58 51°14.327 2°55.119 2.9 75 -3.4 103960 78
2001-12-14 08:09:03 51°14.334 2°55.103 3.4 322 -3.4 103960 78
2001-12-14 08:09:08 51°14.34 2°55.087 2.9 321 -3.4 103960 78
2001-12-14 08:09:14 51°14.349 2°55.068 2.8 50 -3.4 103950 78
2001-12-14 08:09:18 51°14.354 2°55.054 3 107 -3.4 103950 78
2001-12-14 08:09:23 51°14.36 2°55.037 3 97 -3.4 103950 78
2001-12-14 08:09:28 51°14.366 2°55.019 2.6 83 -3.4 103950 78
2001-12-14 08:09:33 51°14.372 2°55.001 3.2 36 -3.4 103950 78
2001-12-14 08:09:38 51°14.377 2°54.982 2.9 6 -3.4 103950 78
2001-12-14 08:09:43 51°14.382 2°54.963 3.3 350 -3.3 103950 78
2001-12-14 08:09:47 51°14.386 2°54.948 2.1 122 -3.3 103950 78
2001-12-14 08:09:53 51°14.389 2°54.922 1.7 72 -3.3 103950 79
2001-12-14 08:09:58 51°14.391 2°54.9 0.7 35 -3.3 103950 79
2001-12-14 08:10:03 51°14.392 2°54.876 0.6 60 -3.3 103960 79
2001-12-14 08:10:09 51°14.392 2°54.845 0.3 137 -3.3 103960 79
2001-12-14 08:10:13 51°14.391 2°54.823 0.7 149 -3.3 103950 78
2001-12-14 08:10:18 51°14.39 2°54.796 0.9 194 -3.3 103950 78
2001-12-14 08:10:23 51°14.388 2°54.768 1.8 206 -3.3 103950 78
2001-12-14 08:10:28 51°14.386 2°54.74 2.1 208 -3.3 103950 78
2001-12-14 08:10:33 51°14.382 2°54.712 2.2 198 -3.3 103950 78
2001-12-14 08:10:38 51°14.376 2°54.684 2.6 202 -3.3 103950 78
2001-12-14 08:10:43 51°14.37 2°54.656 2.4 194 -3.3 103940 78
2001-12-14 08:10:48 51°14.364 2°54.628 2.3 183 -3.3 103940 78
2001-12-14 08:10:53 51°14.357 2°54.6 2.3 196 -3.3 103940 78
2001-12-14 08:10:58 51°14.35 2°54.572 2.3 205 -3.3 103940 78
2001-12-14 08:11:03 51°14.343 2°54.544 2.5 200 -3.3 103940 78
2001-12-14 08:11:08 51°14.336 2°54.516 2 213 -3.3 103940 78
2001-12-14 08:11:13 51°14.328 2°54.488 2 219 -3.3 103940 78
2001-12-14 08:11:19 51°14.318 2°54.456 2.5 193 -3.3 103940 78
2001-12-14 08:11:23 51°14.31 2°54.435 2.7 191 -3.3 103940 78
2001-12-14 08:11:28 51°14.301 2°54.408 3.5 173 -3.3 103940 78
2001-12-14 08:11:33 51°14.291 2°54.382 3 159 -3.3 103950 78
2001-12-14 08:11:38 51°14.281 2°54.356 3.2 188 -3.3 103950 78
2001-12-14 08:11:43 51°14.27 2°54.33 3.8 183 -3.3 103940 78
2001-12-14 08:11:48 51°14.26 2°54.304 4 193 -3.3 103940 78
2001-12-14 08:11:53 51°14.249 2°54.278 3.2 186 -3.3 103940 78
2001-12-14 08:11:58 51°14.239 2°54.252 4.2 175 -3.3 103940 78
2001-12-14 08:12:04 51°14.227 2°54.22 3.7 184 -3.2 103940 78
2001-12-14 08:12:08 51°14.22 2°54.198 4.4 203 -3.2 103940 78
2001-12-14 08:12:13 51°14.21 2°54.171 3.7 202 -3.2 103940 79
2001-12-14 08:12:18 51°14.202 2°54.144 3.5 204 -3.2 103940 79
2001-12-14 08:12:23 51°14.192 2°54.116 3 209 -3.2 103940 79
2001-12-14 08:12:29 51°14.181 2°54.082 2.9 198 -3.2 103940 79
2001-12-14 08:12:33 51°14.174 2°54.06 2.6 206 -3.2 103940 79
2001-12-14 08:12:38 51°14.165 2°54.033 2 207 -3.2 103940 79
2001-12-14 08:12:43 51°14.156 2°54.005 1.8 194 -3.2 103940 79
2001-12-14 08:12:48 51°14.146 2°53.978 1.5 185 -3.2 103940 79
2001-12-14 08:12:53 51°14.137 2°53.951 1.9 203 -3.2 103950 79
2001-12-14 08:12:58 51°14.128 2°53.923 2.1 197 -3.2 103950 79
2001-12-14 08:13:03 51°14.118 2°53.896 2.6 187 -3.1 103950 79
2001-12-14 08:13:09 51°14.107 2°53.863 2.4 199 -3.1 103950 79
2001-12-14 08:13:13 51°14.099 2°53.842 2.3 195 -3.1 103950 79
2001-12-14 08:13:18 51°14.089 2°53.814 3 177 -3.1 103950 79
2001-12-14 08:13:23 51°14.08 2°53.787 2.9 178 -3.1 103950 79
2001-12-14 08:13:28 51°14.07 2°53.759 2.5 182 -3.1 103950 79
2001-12-14 08:13:33 51°14.061 2°53.731 2.1 187 -3.1 103950 79
2001-12-14 08:13:38 51°14.051 2°53.704 3 192 -3.1 103950 79
2001-12-14 08:13:43 51°14.041 2°53.676 2.5 202 -3.1 103940 79
2001-12-14 08:13:49 51°14.03 2°53.643 2.9 203 -3.1 103940 79
2001-12-14 08:13:53 51°14.022 2°53.621 2.8 204 -3.1 103940 79
2001-12-14 08:13:58 51°14.012 2°53.593 3.6 191 -3.1 103940 79
2001-12-14 08:14:03 51°14.003 2°53.565 3.8 200 -3.1 103940 79
2001-12-14 08:14:08 51°13.993 2°53.538 3.5 198 -3.1 103940 79
2001-12-14 08:14:13 51°13.983 2°53.51 3.7 190 -3.1 103940 79
2001-12-14 08:14:18 51°13.974 2°53.482 2.9 195 -3.1 103940 79
2001-12-14 08:14:23 51°13.964 2°53.454 2.5 196 -3.1 103940 79
2001-12-14 08:14:28 51°13.954 2°53.427 2.4 207 -3.1 103940 79
2001-12-14 08:14:33 51°13.944 2°53.398 2.5 211 -3 103940 79
2001-12-14 08:14:38 51°13.935 2°53.37 2.2 211 -3 103940 79
2001-12-14 08:14:43 51°13.924 2°53.343 2.3 214 -3 103940 79
2001-12-14 08:14:48 51°13.915 2°53.314 2.9 191 -3 103940 79
2001-12-14 08:14:53 51°13.905 2°53.286 2.6 187 -3.1 103940 79
2001-12-14 08:14:58 51°13.895 2°53.259 2.6 197 -3.1 103940 79
2001-12-14 08:15:03 51°13.886 2°53.23 2.1 200 -3 103940 79
2001-12-14 08:15:08 51°13.874 2°53.203 2.2 204 -3 103940 79
2001-12-14 08:15:13 51°13.866 2°53.174 3.2 212 -3 103950 79
2001-12-14 08:15:18 51°13.855 2°53.147 2.1 226 -3 103950 79
2001-12-14 08:15:23 51°13.845 2°53.118 1.6 220 -3 103950 79
2001-12-14 08:15:29 51°13.834 2°53.084 1.3 206 -3 103950 79
2001-12-14 08:15:33 51°13.825 2°53.063 1.9 236 -3 103940 79
2001-12-14 08:15:38 51°13.815 2°53.035 2.5 135 -3 103940 79
2001-12-14 08:15:43 51°13.806 2°53.006 1.9 202 -3 103930 79
2001-12-14 08:15:49 51°13.793 2°52.974 1.1 191 -3 103930 79
2001-12-14 08:15:53 51°13.786 2°52.95 1.6 221 -3 103940 79
2001-12-14 08:15:58 51°13.776 2°52.922 0.9 224 -3 103940 79
2001-12-14 08:16:03 51°13.766 2°52.894 1.4 221 -3 103940 78
2001-12-14 08:16:09 51°13.754 2°52.86 3.6 199 -3 103940 78
2001-12-14 08:16:14 51°13.743 2°52.833 4.2 201 -3 103940 78
2001-12-14 08:16:18 51°13.736 2°52.809 1.5 204 -3 103940 78
2001-12-14 08:16:23 51°13.725 2°52.781 3.6 209 -3 103940 78
2001-12-14 08:16:29 51°13.714 2°52.746 2.9 208 -3 103940 78
2001-12-14 08:16:33 51°13.705 2°52.724 4.1 193 -3 103940 78
2001-12-14 08:16:39 51°13.693 2°52.69 3.7 187 -3 103940 78
2001-12-14 08:16:43 51°13.685 2°52.668 3.4 180 -2.9 103950 79
2001-12-14 08:16:48 51°13.675 2°52.639 3.2 181 -2.9 103950 79
2001-12-14 08:16:53 51°13.664 2°52.611 3 172 -2.9 103940 79
2001-12-14 08:16:58 51°13.655 2°52.582 4 192 -2.9 103940 79
2001-12-14 08:17:03 51°13.644 2°52.555 4 189 -2.9 103940 79
2001-12-14 08:17:08 51°13.635 2°52.525 3.9 185 -2.9 103940 79
2001-12-14 08:17:13 51°13.625 2°52.497 3.5 183 -2.9 103940 79
2001-12-14 08:17:18 51°13.614 2°52.469 3.4 176 -2.9 103940 79
2001-12-14 08:17:23 51°13.605 2°52.44 3.7 198 -2.9 103940 79
2001-12-14 08:17:28 51°13.594 2°52.411 2.3 180 -2.9 103940 79
2001-12-14 08:17:33 51°13.584 2°52.383 3 202 -2.9 103960 79
2001-12-14 08:17:38 51°13.574 2°52.354 3.8 189 -2.9 103960 79
2001-12-14 08:17:43 51°13.563 2°52.325 4.5 189 -2.8 103960 79
2001-12-14 08:17:48 51°13.554 2°52.296 3.8 208 -2.8 103960 79
2001-12-14 08:17:54 51°13.541 2°52.262 3.9 200 -2.8 103960 79
2001-12-14 08:17:58 51°13.533 2°52.239 3.3 203 -2.8 103960 79
2001-12-14 08:18:03 51°13.523 2°52.211 2.7 194 -2.8 103950 79
2001-12-14 08:18:08 51°13.513 2°52.182 3.8 214 -2.8 103950 79
2001-12-14 08:18:13 51°13.502 2°52.153 2.9 212 -2.8 103960 79
2001-12-14 08:18:18 51°13.493 2°52.124 2.8 208 -2.8 103960 79
2001-12-14 08:18:23 51°13.483 2°52.095 2.1 227 -2.8 103950 79
2001-12-14 08:18:29 51°13.471 2°52.061 2.4 200 -2.8 103950 79
2001-12-14 08:18:33 51°13.463 2°52.038 2.6 191 -2.8 103960 78
2001-12-14 08:18:38 51°13.453 2°52.008 2.1 160 -2.8 103960 78
2001-12-14 08:18:44 51°13.44 2°51.975 2.1 184 -2.8 103960 78
2001-12-14 08:18:49 51°13.43 2°51.945 2.2 179 -2.8 103960 78
2001-12-14 08:18:53 51°13.422 2°51.922 2.2 193 -2.8 103960 78
2001-12-14 08:18:58 51°13.412 2°51.893 2.2 190 -2.8 103960 78
2001-12-14 08:19:03 51°13.401 2°51.865 2.4 205 -2.8 103960 78
2001-12-14 08:19:08 51°13.391 2°51.835 1.8 203 -2.8 103960 78
2001-12-14 08:19:13 51°13.381 2°51.807 2.5 206 -2.8 103960 78
2001-12-14 08:19:18 51°13.371 2°51.778 2.3 185 -2.8 103960 78
2001-12-14 08:19:23 51°13.361 2°51.749 2.9 186 -2.9 103960 77
2001-12-14 08:19:28 51°13.35 2°51.721 2.9 173 -2.9 103960 77
2001-12-14 08:19:33 51°13.341 2°51.691 2.4 182 -2.9 103960 77
2001-12-14 08:19:38 51°13.33 2°51.662 2.9 165 -2.9 103960 77
2001-12-14 08:19:43 51°13.32 2°51.633 3.2 174 -2.8 103960 77
2001-12-14 08:19:48 51°13.309 2°51.605 2.4 164 -2.8 103960 77
2001-12-14 08:19:53 51°13.3 2°51.575 2.2 188 -2.8 103960 78
2001-12-14 08:19:58 51°13.289 2°51.547 3.2 185 -2.8 103960 78
2001-12-14 08:20:03 51°13.279 2°51.518 2.9 199 -2.8 103960 78
2001-12-14 08:20:08 51°13.269 2°51.488 2.6 200 -2.8 103960 78
2001-12-14 08:20:13 51°13.258 2°51.46 2.3 192 -2.8 103960 78
2001-12-14 08:20:18 51°13.249 2°51.43 2.2 213 -2.8 103960 78
2001-12-14 08:20:23 51°13.238 2°51.402 2.3 207 -2.8 103950 78
2001-12-14 08:20:28 51°13.229 2°51.372 2.2 215 -2.8 103950 78
2001-12-14 08:20:33 51°13.218 2°51.344 2.5 204 -2.8 103960 78
2001-12-14 08:20:38 51°13.208 2°51.314 2.5 200 -2.8 103960 78
2001-12-14 08:20:43 51°13.198 2°51.285 2.6 185 -2.8 103960 78
2001-12-14 08:20:49 51°13.185 2°51.251 2.3 184 -2.8 103960 78
2001-12-14 08:20:53 51°13.178 2°51.227 2.5 189 -2.8 103960 77
2001-12-14 08:20:58 51°13.166 2°51.199 2.5 204 -2.8 103960 77
2001-12-14 08:21:03 51°13.157 2°51.169 2.2 200 -2.8 103960 77
2001-12-14 08:21:08 51°13.146 2°51.14 2.2 203 -2.8 103960 77
2001-12-14 08:21:14 51°13.134 2°51.105 2.5 202 -2.8 103960 77
2001-12-14 08:21:18 51°13.125 2°51.082 1.9 191 -2.8 103960 77
2001-12-14 08:21:23 51°13.116 2°51.052 1.9 177 -2.8 103960 77
2001-12-14 08:21:28 51°13.105 2°51.023 2 166 -2.8 103960 77
2001-12-14 08:21:33 51°13.095 2°50.993 1.8 182 -2.8 103960 76
2001-12-14 08:21:38 51°13.085 2°50.964 1.7 195 -2.8 103960 76
2001-12-14 08:21:43 51°13.075 2°50.935 1.5 173 -2.8 103960 76
2001-12-14 08:21:48 51°13.065 2°50.906 1.8 186 -2.8 103960 76
2001-12-14 08:21:53 51°13.055 2°50.877 1.3 224 -2.8 103960 76
2001-12-14 08:21:59 51°13.042 2°50.842 0.7 241 -2.8 103960 76
2001-12-14 08:22:03 51°13.034 2°50.818 0.6 251 -2.8 103960 76
2001-12-14 08:22:09 51°13.021 2°50.784 1.6 231 -2.8 103960 76
2001-12-14 08:22:13 51°13.013 2°50.761 1.6 225 -2.8 103960 76
2001-12-14 08:22:18 51°13.003 2°50.732 2.1 245 -2.8 103960 76
2001-12-14 08:22:23 51°12.992 2°50.704 1.6 257 -2.8 103960 76
2001-12-14 08:22:28 51°12.983 2°50.674 1.5 251 -2.8 103960 76
2001-12-14 08:22:33 51°12.972 2°50.647 1.7 252 -2.8 103960 76
2001-12-14 08:22:38 51°12.963 2°50.617 1.5 264 -2.8 103960 76
2001-12-14 08:22:43 51°12.952 2°50.588 1.5 252 -2.7 103960 77
2001-12-14 08:22:48 51°12.943 2°50.559 0.8 127 -2.7 103960 77
2001-12-14 08:22:54 51°12.93 2°50.525 1.1 267 -2.7 103960 77
2001-12-14 08:22:59 51°12.921 2°50.495 0.7 248 -2.7 103960 77
2001-12-14 08:23:02 51°12.914 2°50.478 0.8 211 -2.7 103960 77
2001-12-14 08:23:08 51°12.902 2°50.443 1.6 209 -2.7 103960 77
2001-12-14 08:23:13 51°12.891 2°50.414 1.4 196 -2.7 103960 77
2001-12-14 08:23:18 51°12.882 2°50.385 1.3 216 -2.7 103960 77
2001-12-14 08:23:23 51°12.871 2°50.356 1 204 -2.7 103960 77
2001-12-14 08:23:28 51°12.861 2°50.327 0.9 207 -2.7 103960 77
2001-12-14 08:23:33 51°12.85 2°50.298 1.5 144 -2.7 103960 77
2001-12-14 08:23:38 51°12.84 2°50.269 0.8 256 -2.7 103960 77
2001-12-14 08:23:43 51°12.83 2°50.24 0.8 239 -2.7 103960 76
2001-12-14 08:23:48 51°12.82 2°50.21 2.2 263 -2.7 103960 76
2001-12-14 08:23:53 51°12.809 2°50.182 2.3 276 -2.7 103960 76
2001-12-14 08:23:58 51°12.8 2°50.152 1.5 258 -2.7 103960 76
2001-12-14 08:24:03 51°12.789 2°50.123 1.3 259 -2.6 103960 77
2001-12-14 08:24:09 51°12.778 2°50.088 1.5 253 -2.6 103960 77
2001-12-14 08:24:13 51°12.769 2°50.065 1.2 293 -2.6 103960 77
2001-12-14 08:24:19 51°12.758 2°50.03 1.2 249 -2.6 103960 77
2001-12-14 08:24:23 51°12.749 2°50.007 0.9 258 -2.6 103950 77
2001-12-14 08:24:28 51°12.739 2°49.977 0.8 251 -2.6 103950 77
2001-12-14 08:24:32 51°12.73 2°49.955 0.6 276 -2.6 103950 77
2001-12-14 08:24:38 51°12.719 2°49.92 0.2 252 -2.6 103950 77
2001-12-14 08:24:43 51°12.708 2°49.891 0.2 250 -2.6 103950 77
2001-12-14 08:24:48 51°12.699 2°49.861 2.1 262 -2.6 103950 77
2001-12-14 08:24:53 51°12.688 2°49.832 1.7 279 -2.5 103960 77
2001-12-14 08:24:58 51°12.678 2°49.802 1.6 261 -2.5 103960 77
2001-12-14 08:25:03 51°12.668 2°49.773 1.3 305 -2.5 103960 78
2001-12-14 08:25:08 51°12.657 2°49.744 0.9 277 -2.5 103960 78
2001-12-14 08:25:13 51°12.648 2°49.714 0.8 281 -2.5 103960 77
2001-12-14 08:25:18 51°12.637 2°49.685 0.8 263 -2.5 103960 77
2001-12-14 08:25:23 51°12.627 2°49.655 0.6 263 -2.6 103950 76
2001-12-14 08:25:29 51°12.615 2°49.62 0.6 251 -2.6 103950 76
2001-12-14 08:25:33 51°12.607 2°49.596 0.8 269 -2.6 103960 75
2001-12-14 08:25:38 51°12.597 2°49.567 0.3 252 -2.6 103960 75
2001-12-14 08:25:43 51°12.587 2°49.537 0.3 276 -2.6 103950 75
2001-12-14 08:25:48 51°12.576 2°49.508 2.2 184 -2.6 103950 75
2001-12-14 08:25:53 51°12.566 2°49.479 2.2 173 -2.6 103960 74
2001-12-14 08:25:58 51°12.556 2°49.449 2.3 149 -2.6 103960 74
2001-12-14 08:26:03 51°12.547 2°49.419 3.1 193 -2.6 103950 74
2001-12-14 08:26:07 51°12.539 2°49.395 3.4 179 -2.6 103950 74
2001-12-14 08:26:13 51°12.528 2°49.359 3.4 197 -2.6 103950 75
2001-12-14 08:26:18 51°12.519 2°49.328 2.7 183 -2.6 103950 75
2001-12-14 08:26:23 51°12.51 2°49.298 2.4 201 -2.6 103950 75
2001-12-14 08:26:28 51°12.5 2°49.269 2.2 186 -2.6 103950 75
2001-12-14 08:26:34 51°12.489 2°49.232 2.6 198 -2.6 103950 76
2001-12-14 08:26:38 51°12.482 2°49.208 1.7 179 -2.6 103950 76
2001-12-14 08:26:43 51°12.474 2°49.176 1.9 187 -2.5 103960 76
2001-12-14 08:26:49 51°12.464 2°49.14 1.1 119 -2.5 103960 76
2001-12-14 08:26:53 51°12.457 2°49.115 1.7 179 -2.5 103950 76
2001-12-14 08:26:58 51°12.449 2°49.085 0.8 187 -2.5 103950 76
2001-12-14 08:27:03 51°12.441 2°49.054 1.2 212 -2.5 103950 75
2001-12-14 08:27:09 51°12.431 2°49.017 0.6 193 -2.5 103950 75
2001-12-14 08:27:13 51°12.425 2°48.992 1.1 228 -2.5 103950 75
2001-12-14 08:27:18 51°12.416 2°48.962 1.5 211 -2.5 103950 75
2001-12-14 08:27:23 51°12.408 2°48.93 1.2 243 -2.5 103950 75
2001-12-14 08:27:28 51°12.4 2°48.9 1.1 222 -2.5 103950 75
2001-12-14 08:27:34 51°12.39 2°48.863 1.5 229 -2.5 103950 75
2001-12-14 08:27:38 51°12.384 2°48.838 1.1 225 -2.5 103950 75
2001-12-14 08:27:44 51°12.373 2°48.801 1.9 241 -2.5 103950 75
2001-12-14 08:27:48 51°12.367 2°48.776 1.7 222 -2.5 103950 75
2001-12-14 08:27:53 51°12.358 2°48.745 1.2 226 -2.5 103950 76
2001-12-14 08:27:58 51°12.35 2°48.714 1.2 243 -2.5 103950 76
2001-12-14 08:28:03 51°12.342 2°48.683 1.1 245 -2.5 103950 75
2001-12-14 08:28:08 51°12.333 2°48.653 2.1 251 -2.5 103950 75
2001-12-14 08:28:13 51°12.324 2°48.621 2.8 218 -2.5 103950 75
2001-12-14 08:28:18 51°12.316 2°48.59 1.3 245 -2.5 103950 75
2001-12-14 08:28:23 51°12.306 2°48.56 1.4 243 -2.5 103950 75
2001-12-14 08:28:28 51°12.3 2°48.528 1.4 229 -2.5 103950 75
2001-12-14 08:28:33 51°12.289 2°48.498 2.8 253 -2.4 103940 75
2001-12-14 08:28:38 51°12.282 2°48.466 2.1 249 -2.4 103940 75
2001-12-14 08:28:43 51°12.272 2°48.436 1.7 244 -2.4 103950 77
2001-12-14 08:28:47 51°12.266 2°48.411 1.8 229 -2.4 103950 77
2001-12-14 08:28:54 51°12.252 2°48.368 2 232 -2.4 103950 76
2001-12-14 08:28:58 51°12.248 2°48.342 1.8 223 -2.4 103950 76
2001-12-14 08:29:03 51°12.237 2°48.312 1.5 249 -2.4 103950 74
2001-12-14 08:29:09 51°12.229 2°48.274 1.4 231 -2.4 103950 74
2001-12-14 08:29:13 51°12.221 2°48.25 1 255 -2.5 103950 74
2001-12-14 08:29:19 51°12.211 2°48.213 1.5 223 -2.5 103950 74
2001-12-14 08:29:23 51°12.204 2°48.188 1.2 244 -2.4 103950 75
2001-12-14 08:29:29 51°12.194 2°48.15 0.7 208 -2.4 103950 75
2001-12-14 08:29:34 51°12.185 2°48.12 0.8 259 -2.4 103940 74
2001-12-14 08:29:38 51°12.179 2°48.095 1.1 245 -2.4 103940 74
2001-12-14 08:29:43 51°12.17 2°48.064 0.8 235 -2.4 103940 74
2001-12-14 08:29:47 51°12.164 2°48.04 1.6 255 -2.4 103940 74
2001-12-14 08:29:53 51°12.154 2°48.003 0.9 235 -2.4 103950 74
2001-12-14 08:29:59 51°12.144 2°47.967 0.8 299 -2.4 103950 74
2001-12-14 08:30:03 51°12.137 2°47.943 0.6 252 -2.4 103940 74
2001-12-14 08:30:09 51°12.128 2°47.906 3.3 259 -2.4 103940 74
2001-12-14 08:30:13 51°12.121 2°47.882 2.5 268 -2.4 103950 74
2001-12-14 08:30:18 51°12.113 2°47.852 2.2 275 -2.4 103950 74
2001-12-14 08:30:23 51°12.105 2°47.821 2 257 -2.4 103950 75
2001-12-14 08:30:29 51°12.095 2°47.785 1.7 252 -2.4 103950 75
2001-12-14 08:30:33 51°12.088 2°47.761 2.5 260 -2.4 103950 75
2001-12-14 08:30:38 51°12.081 2°47.731 2.5 279 -2.4 103950 75
2001-12-14 08:30:43 51°12.073 2°47.7 1.8 296 -2.4 103940 74
2001-12-14 08:30:48 51°12.066 2°47.67 1.2 278 -2.4 103940 74
2001-12-14 08:30:53 51°12.058 2°47.639 0.9 303 -2.4 103950 74
2001-12-14 08:30:58 51°12.052 2°47.609 1 231 -2.4 103950 74
2001-12-14 08:31:03 51°12.045 2°47.578 0.8 318 -2.4 103950 74
2001-12-14 08:31:08 51°12.037 2°47.547 1.1 344 -2.4 103950 74
2001-12-14 08:31:14 51°12.03 2°47.51 0.9 3 -2.4 103950 75
2001-12-14 08:31:18 51°12.024 2°47.485 1 174 -2.4 103950 75
2001-12-14 08:31:24 51°12.015 2°47.448 0.8 207 -2.3 103950 75
2001-12-14 08:31:28 51°12.011 2°47.423 1.1 256 -2.3 103950 75
2001-12-14 08:31:33 51°12.003 2°47.393 0.8 237 -2.3 103950 76
2001-12-14 08:31:38 51°11.997 2°47.361 0.9 243 -2.3 103950 76
2001-12-14 08:31:43 51°11.989 2°47.33 1.6 277 -2.3 103940 76
2001-12-14 08:31:48 51°11.982 2°47.299 1 196 -2.3 103940 76
2001-12-14 08:31:54 51°11.973 2°47.262 2.1 266 -2.3 103950 76
2001-12-14 08:31:58 51°11.968 2°47.238 3 269 -2.3 103950 76
2001-12-14 08:32:03 51°11.96 2°47.207 3.3 292 -2.3 103950 76
2001-12-14 08:32:09 51°11.952 2°47.169 3 290 -2.3 103950 76
2001-12-14 08:32:13 51°11.946 2°47.145 2.9 290 -2.2 103940 76
2001-12-14 08:32:18 51°11.94 2°47.113 2.8 303 -2.2 103940 76
2001-12-14 08:32:24 51°11.932 2°47.075 2.2 310 -2.2 103950 75
2001-12-14 08:32:29 51°11.926 2°47.044 1.5 281 -2.2 103950 75
2001-12-14 08:32:33 51°11.921 2°47.018 1.5 277 -2.3 103950 74
2001-12-14 08:32:38 51°11.915 2°46.987 2 291 -2.3 103950 74
2001-12-14 08:32:44 51°11.908 2°46.949 1.7 286 -2.3 103950 73
2001-12-14 08:32:48 51°11.902 2°46.923 1.9 316 -2.3 103950 73
2001-12-14 08:32:54 51°11.896 2°46.885 2.3 310 -2.3 103950 72
2001-12-14 08:32:58 51°11.891 2°46.86 1.6 319 -2.3 103950 72
2001-12-14 08:33:03 51°11.885 2°46.828 2 317 -2.3 103950 72
2001-12-14 08:33:08 51°11.878 2°46.797 2.3 290 -2.3 103950 72
2001-12-14 08:33:13 51°11.873 2°46.764 2.2 295 -2.3 103950 72
2001-12-14 08:33:18 51°11.867 2°46.733 1.7 300 -2.3 103950 72
2001-12-14 08:33:23 51°11.861 2°46.701 1.9 294 -2.3 103950 72
2001-12-14 08:33:28 51°11.854 2°46.67 2.2 283 -2.3 103950 72
2001-12-14 08:33:34 51°11.848 2°46.631 1.6 282 -2.3 103950 72
2001-12-14 08:33:38 51°11.841 2°46.606 1.9 276 -2.3 103950 72
2001-12-14 08:33:43 51°11.836 2°46.574 2.1 269 -2.3 103950 72
2001-12-14 08:33:49 51°11.828 2°46.536 3.1 260 -2.3 103950 72
2001-12-14 08:33:53 51°11.823 2°46.511 2.4 277 -2.2 103950 73
2001-12-14 08:33:58 51°11.817 2°46.479 2.3 275 -2.2 103950 73
2001-12-14 08:34:03 51°11.81 2°46.447 2 270 -2.3 103940 72
2001-12-14 08:34:08 51°11.804 2°46.415 2.4 286 -2.3 103940 72
2001-12-14 08:34:13 51°11.797 2°46.383 2.2 300 -2.3 103950 71
2001-12-14 08:34:18 51°11.791 2°46.351 2.2 273 -2.3 103950 71
2001-12-14 08:34:24 51°11.784 2°46.313 2.1 284 -2.3 103950 71
2001-12-14 08:34:28 51°11.778 2°46.287 1.7 299 -2.3 103950 71
2001-12-14 08:34:33 51°11.772 2°46.256 2.2 276 -2.3 103950 71
2001-12-14 08:34:38 51°11.765 2°46.224 1.5 242 -2.3 103950 71
2001-12-14 08:34:43 51°11.758 2°46.193 1.6 243 -2.3 103950 71
2001-12-14 08:34:48 51°11.752 2°46.161 2 278 -2.3 103950 71
2001-12-14 08:34:52 51°11.747 2°46.135 1.9 263 -2.3 103950 71
2001-12-14 08:34:58 51°11.739 2°46.097 1.8 254 -2.3 103950 71
2001-12-14 08:35:03 51°11.733 2°46.065 3 290 -2.3 103950 72
2001-12-14 08:35:08 51°11.727 2°46.034 3 282 -2.3 103950 72
2001-12-14 08:35:14 51°11.719 2°45.995 3 278 -2.2 103950 73
2001-12-14 08:35:18 51°11.714 2°45.97 1.4 274 -2.2 103950 73
2001-12-14 08:35:23 51°11.708 2°45.938 1.3 310 -2.2 103950 72
2001-12-14 08:35:28 51°11.702 2°45.906 1.1 253 -2.2 103950 72
2001-12-14 08:35:33 51°11.696 2°45.874 1 230 -2.2 103950 73
2001-12-14 08:35:39 51°11.688 2°45.836 2.3 276 -2.2 103950 73
2001-12-14 08:35:43 51°11.683 2°45.81 2.7 299 -2.2 103950 73
2001-12-14 08:35:48 51°11.677 2°45.779 2.4 268 -2.2 103950 73
2001-12-14 08:35:54 51°11.669 2°45.741 2.5 286 -2.2 103950 73
2001-12-14 08:35:58 51°11.665 2°45.715 2.8 272 -2.2 103950 73
2001-12-14 08:36:03 51°11.658 2°45.684 2.2 302 -2.1 103950 74
2001-12-14 08:36:08 51°11.653 2°45.651 2.5 248 -2.1 103950 74
2001-12-14 08:36:12 51°11.646 2°45.627 2.1 292 -2.1 103950 74
2001-12-14 08:36:18 51°11.64 2°45.589 2 257 -2.1 103950 74
2001-12-14 08:36:23 51°11.635 2°45.552 2.4 291 -2.1 103950 75
2001-12-14 08:36:29 51°11.627 2°45.515 3.2 273 -2.1 103950 75
2001-12-14 08:36:33 51°11.622 2°45.489 2.3 280 -2 103940 75
2001-12-14 08:36:39 51°11.615 2°45.455 2.2 277 -2 103940 75
2001-12-14 08:36:43 51°11.611 2°45.43 2.4 297 -2 103950 74
2001-12-14 08:36:48 51°11.606 2°45.398 2.3 282 -2 103950 74
2001-12-14 08:36:53 51°11.601 2°45.366 2.3 282 -2.1 103950 73
2001-12-14 08:36:59 51°11.594 2°45.328 3.1 282 -2.1 103950 73
2001-12-14 08:37:03 51°11.59 2°45.303 2.9 272 -2.1 103950 73
2001-12-14 08:37:08 51°11.585 2°45.271 3.2 275 -2.1 103950 73
2001-12-14 08:37:13 51°11.578 2°45.24 3 290 -2.1 103950 72
2001-12-14 08:37:18 51°11.573 2°45.209 3.5 283 -2.1 103950 72
2001-12-14 08:37:23 51°11.567 2°45.177 2.6 299 -2.1 103950 72
2001-12-14 08:37:28 51°11.561 2°45.146 2.4 299 -2.1 103950 72
2001-12-14 08:37:33 51°11.555 2°45.115 1.7 287 -2.1 103950 72
2001-12-14 08:37:38 51°11.55 2°45.084 2.2 252 -2.1 103950 72
2001-12-14 08:37:43 51°11.543 2°45.052 2.8 248 -2.1 103960 72
2001-12-14 08:37:48 51°11.538 2°45.021 1.9 273 -2.1 103960 72
2001-12-14 08:37:53 51°11.532 2°44.99 2.6 260 -2.1 103950 73
2001-12-14 08:37:58 51°11.527 2°44.958 2.5 261 -2.1 103950 73
2001-12-14 08:38:03 51°11.521 2°44.927 2.3 279 -2.1 103950 74
2001-12-14 08:38:08 51°11.516 2°44.895 2.2 277 -2.1 103950 74
2001-12-14 08:38:13 51°11.51 2°44.863 2 270 -2 103950 75
2001-12-14 08:38:18 51°11.504 2°44.832 2.5 286 -2 103950 75
2001-12-14 08:38:22 51°11.5 2°44.807 2.1 289 -2 103960 76
2001-12-14 08:38:29 51°11.492 2°44.763 3 283 -2 103960 76
2001-12-14 08:38:32 51°11.488 2°44.744 2.7 301 -1.9 103950 76
2001-12-14 08:38:38 51°11.482 2°44.706 3 289 -1.9 103950 76
2001-12-14 08:38:43 51°11.476 2°44.675 3.2 299 -1.9 103950 75
2001-12-14 08:38:48 51°11.471 2°44.644 2.3 304 -1.9 103950 75
2001-12-14 08:38:53 51°11.466 2°44.612 3 288 -2 103960 75
2001-12-14 08:38:58 51°11.46 2°44.581 2.1 299 -2 103960 75
2001-12-14 08:39:03 51°11.455 2°44.55 1.4 320 -2 103950 74
2001-12-14 08:39:08 51°11.449 2°44.518 2 300 -2 103950 74
2001-12-14 08:39:14 51°11.443 2°44.481 2 300 -2 103960 75
2001-12-14 08:39:18 51°11.438 2°44.456 2 340 -2 103960 75
2001-12-14 08:39:24 51°11.432 2°44.418 2.1 335 -1.9 103960 75
2001-12-14 08:39:28 51°11.427 2°44.393 1.5 272 -1.9 103960 75
2001-12-14 08:39:33 51°11.421 2°44.361 1.4 282 -1.9 103960 76
2001-12-14 08:39:38 51°11.417 2°44.33 2 284 -1.9 103960 76
2001-12-14 08:39:43 51°11.411 2°44.299 1.7 306 -1.9 103950 76
2001-12-14 08:39:49 51°11.404 2°44.261 1.5 296 -1.9 103950 76
2001-12-14 08:39:53 51°11.4 2°44.236 0.9 296 -1.9 103960 76
2001-12-14 08:39:58 51°11.394 2°44.205 2.4 284 -1.9 103960 76
2001-12-14 08:40:03 51°11.389 2°44.173 2 291 -1.8 103960 76
2001-12-14 08:40:08 51°11.382 2°44.143 1.5 316 -1.8 103960 76
2001-12-14 08:40:14 51°11.377 2°44.105 2.2 267 -1.8 103960 76
2001-12-14 08:40:19 51°11.373 2°44.073 1.8 281 -1.8 103960 76
2001-12-14 08:40:23 51°11.367 2°44.049 2.8 274 -1.8 103960 76
2001-12-14 08:40:29 51°11.362 2°44.011 3.2 270 -1.8 103960 76
2001-12-14 08:40:33 51°11.356 2°43.986 2.7 289 -1.8 103960 76
2001-12-14 08:40:38 51°11.352 2°43.954 1.3 253 -1.8 103960 76
2001-12-14 08:40:43 51°11.345 2°43.924 2.9 274 -1.8 103960 75
2001-12-14 08:40:48 51°11.341 2°43.892 2.8 272 -1.8 103960 75
2001-12-14 08:40:53 51°11.335 2°43.861 3.3 283 -1.8 103960 75
2001-12-14 08:40:59 51°11.328 2°43.824 3.1 288 -1.8 103960 75
2001-12-14 08:41:04 51°11.322 2°43.793 2.5 278 -1.8 103960 75
2001-12-14 08:41:08 51°11.318 2°43.767 3.6 290 -1.8 103960 75
2001-12-14 08:41:13 51°11.312 2°43.737 3 296 -1.7 103960 75
2001-12-14 08:41:19 51°11.306 2°43.7 4.2 297 -1.7 103960 75
2001-12-14 08:41:23 51°11.301 2°43.675 3.4 301 -1.7 103960 76
2001-12-14 08:41:29 51°11.295 2°43.638 3.4 299 -1.7 103960 76
2001-12-14 08:41:33 51°11.291 2°43.613 2.8 292 -1.7 103960 75
2001-12-14 08:41:38 51°11.284 2°43.582 3.1 296 -1.7 103960 75
2001-12-14 08:41:43 51°11.28 2°43.551 2.4 291 -1.7 103960 74
2001-12-14 08:41:48 51°11.274 2°43.52 2 275 -1.7 103960 74
2001-12-14 08:41:52 51°11.27 2°43.495 2.8 276 -1.7 103960 73
2001-12-14 08:41:58 51°11.263 2°43.458 1.7 273 -1.7 103960 73
2001-12-14 08:42:03 51°11.257 2°43.426 1.8 255 -1.7 103960 73
2001-12-14 08:42:08 51°11.253 2°43.394 2.5 283 -1.7 103960 73
2001-12-14 08:42:13 51°11.247 2°43.363 3 288 -1.7 103960 72
2001-12-14 08:42:19 51°11.241 2°43.326 2.7 325 -1.7 103960 72
2001-12-14 08:42:23 51°11.236 2°43.302 2.7 268 -1.7 103960 73
2001-12-14 08:42:28 51°11.232 2°43.27 1.8 327 -1.7 103960 73
2001-12-14 08:42:33 51°11.225 2°43.239 1.7 256 -1.6 103970 74
2001-12-14 08:42:38 51°11.221 2°43.208 2.8 295 -1.6 103970 74
2001-12-14 08:42:43 51°11.215 2°43.177 3 299 -1.6 103960 73
2001-12-14 08:42:47 51°11.211 2°43.153 3.8 312 -1.6 103960 73
2001-12-14 08:42:54 51°11.204 2°43.11 3.1 336 -1.6 103960 73
2001-12-14 08:42:58 51°11.199 2°43.085 2.3 327 -1.6 103960 73
2001-12-14 08:43:03 51°11.194 2°43.054 2.9 318 -1.6 103970 72
2001-12-14 08:43:08 51°11.188 2°43.023 2.1 321 -1.6 103970 72
2001-12-14 08:43:13 51°11.183 2°42.992 2.5 283 -1.6 103960 73
2001-12-14 08:43:18 51°11.179 2°42.961 2 342 -1.6 103960 73
2001-12-14 08:43:24 51°11.172 2°42.924 2.2 331 -1.6 103960 72
2001-12-14 08:43:28 51°11.17 2°42.899 2.3 317 -1.6 103960 72
2001-12-14 08:43:33 51°11.164 2°42.868 2.5 345 -1.6 103960 71
2001-12-14 08:43:38 51°11.16 2°42.837 1.8 333 -1.6 103960 71
2001-12-14 08:43:42 51°11.156 2°42.812 1.8 336 -1.6 103970 70
2001-12-14 08:43:48 51°11.152 2°42.774 1.4 334 -1.6 103970 70
2001-12-14 08:43:53 51°11.147 2°42.743 1.8 347 -1.6 103970 70
2001-12-14 08:43:58 51°11.143 2°42.712 1.8 323 -1.6 103970 70
2001-12-14 08:44:03 51°11.138 2°42.681 1.7 327 -1.6 103970 70
2001-12-14 08:44:08 51°11.135 2°42.65 2 255 -1.6 103970 70
2001-12-14 08:44:13 51°11.129 2°42.619 1.6 319 -1.6 103960 70
2001-12-14 08:44:18 51°11.125 2°42.588 2.4 296 -1.6 103960 70
2001-12-14 08:44:23 51°11.121 2°42.556 2 302 -1.6 103970 69
2001-12-14 08:44:28 51°11.117 2°42.526 2 327 -1.6 103970 69
2001-12-14 08:44:34 51°11.112 2°42.492 2.3 303 -1.6 103960 70
2001-12-14 08:44:38 51°11.109 2°42.47 3.6 278 -1.6 103960 70
2001-12-14 08:44:43 51°11.105 2°42.445 2.7 273 -1.6 103960 70
2001-12-14 08:44:49 51°11.101 2°42.416 3.1 309 -1.6 103960 70
2001-12-14 08:44:53 51°11.098 2°42.397 3.9 264 -1.6 103960 70
2001-12-14 08:44:58 51°11.094 2°42.375 5.6 301 -1.6 103960 70
2001-12-14 08:45:04 51°11.091 2°42.35 5.8 302 -1.6 103960 71
2001-12-14 08:45:08 51°11.088 2°42.334 6.2 305 -1.6 103960 71
2001-12-14 08:45:13 51°11.086 2°42.315 5.6 302 -1.6 103960 72
2001-12-14 08:45:18 51°11.084 2°42.297 5.4 308 -1.6 103960 72
2001-12-14 08:45:23 51°11.081 2°42.28 6.4 316 -1.5 103970 72
2001-12-14 08:45:28 51°11.079 2°42.264 5.5 315 -1.5 103970 72
2001-12-14 08:45:33 51°11.077 2°42.249 5.3 303 -1.6 103970 71
2001-12-14 08:45:39 51°11.075 2°42.23 6.5 324 -1.6 103970 71
2001-12-14 08:45:43 51°11.074 2°42.219 7.5 313 -1.6 103970 68
2001-12-14 08:45:49 51°11.072 2°42.202 8 324 -1.6 103970 68
2001-12-14 08:45:53 51°11.072 2°42.191 7.4 324 -1.5 103970 71
2001-12-14 08:45:58 51°11.071 2°42.178 6.1 332 -1.5 103970 71
2001-12-14 08:46:03 51°11.07 2°42.166 6.5 340 -1.4 103970 71
2001-12-14 08:46:09 51°11.07 2°42.152 7.3 338 -1.4 103970 71
2001-12-14 08:46:14 51°11.07 2°42.14 7.4 339 -1.4 103970 70
2001-12-14 08:46:19 51°11.069 2°42.129 7.4 338 -1.4 103970 70
2001-12-14 08:46:23 51°11.069 2°42.121 6.9 340 -1.4 103970 68
2001-12-14 08:46:28 51°11.07 2°42.111 7.3 351 -1.4 103970 68
2001-12-14 08:46:33 51°11.07 2°42.1 7.1 348 -1.5 103950 66
2001-12-14 08:46:38 51°11.07 2°42.091 7.5 346 -1.5 103950 66
2001-12-14 08:46:44 51°11.071 2°42.08 7.4 352 -1.5 103960 67
2001-12-14 08:46:49 51°11.071 2°42.07 7.8 346 -1.5 103960 67